Weather History for Ironwood, MI

Change the Weather History Date:

Saturday, December 10, 2011

  Actual Average Record
Temperature  
Mean Temperature 14 °F -  
Max Temperature 24 °F 29 °F 44 °F (2002)
Min Temperature 5 °F 17 °F -13 °F (2000)
Degree Days  
Heating Degree Days 50    
Moisture  
Dew Point 3 °F    
Average Humidity 62    
Maximum Humidity 74    
Minimum Humidity 50    
Precipitation  
Precipitation 0.00 in - - ()
Sea Level Pressure  
Sea Level Pressure 30.13 in    
Wind  
Wind Speed 9 mph (SW)    
Max Wind Speed 14 mph    
Max Gust Speed 22 mph    
Visibility 10 miles    
Events      
Averages and records for this station are not official NWS values.
T = Trace of Precipitation, MM = Missing Value Source: NWS Daily Summary

Daily Weather History Graph

Daily Weather History Graph

Search for Another Location

Airport:

Trip Planner

Search our weather history database for the weather conditions in past years. The results will help you decide how hot, cold, wet, or windy it might be!

Date:

Astronomy

Dec. 10, 2011 Rise Set
Actual Time 7:33 AM CST 4:13 PM CST
Civil Twilight 6:58 AM CST 4:47 PM CST
Nautical Twilight 6:20 AM CST 5:26 PM CST
Astronomical Twilight 5:43 AM CST 6:02 PM CST
Moon 4:26 PM CST (12/10) 7:34 AM CST (12/10)
Length of Visible Light 9h 49m
Length of Day
8h 39m
Full, 100% of the Moon is Illuminated
Dec 10
Full
Dec 17
Last Quarter
Dec 24
New
Jan 1
First Quarter
Jan 9
Full

Hourly Weather History & Observations

Time (CST) Temp. Windchill Dew Point Humidity Pressure Visibility Wind Dir Wind Speed Gust Speed Precip Events Conditions
12:15 AM 6.8 °F -7.8 °F -2.2 °F 67% 30.21 in 10.0 mi WSW 10.4 mph - N/A   Partly Cloudy
12:35 AM 6.8 °F -6.9 °F -4.0 °F 61% 30.21 in 10.0 mi WSW 9.2 mph - N/A   Partly Cloudy
12:55 AM 6.8 °F -5.9 °F -4.0 °F 61% 30.20 in 10.0 mi WSW 8.1 mph - N/A   Partly Cloudy
1:15 AM 6.8 °F -3.5 °F -4.0 °F 61% 30.19 in 10.0 mi SSW 5.8 mph - N/A   Partly Cloudy
1:35 AM 5.0 °F -8.1 °F -4.0 °F 66% 30.19 in 10.0 mi SSW 8.1 mph - N/A   Partly Cloudy
1:55 AM 5.0 °F -8.1 °F -4.0 °F 66% 30.19 in 10.0 mi SW 8.1 mph - N/A   Partly Cloudy
2:35 AM 5.0 °F -8.1 °F -4.0 °F 66% 30.20 in 10.0 mi SW 8.1 mph - N/A   Partly Cloudy
2:55 AM 5.0 °F -8.1 °F -4.0 °F 66% 30.21 in 10.0 mi SW 8.1 mph - N/A   Partly Cloudy
3:15 AM 6.8 °F -5.9 °F -0.4 °F 72% 30.20 in 10.0 mi SW 8.1 mph - N/A   Scattered Clouds
3:35 AM 6.8 °F -5.9 °F -4.0 °F 61% 30.20 in 10.0 mi SW 8.1 mph - N/A   Overcast
3:55 AM 6.8 °F -7.8 °F -2.2 °F 67% 30.19 in 10.0 mi SW 10.4 mph - N/A   Overcast
4:15 AM 6.8 °F -5.9 °F -2.2 °F 67% 30.18 in 10.0 mi SSW 8.1 mph - N/A   Overcast
4:35 AM 6.8 °F -4.8 °F -2.2 °F 67% 30.18 in 10.0 mi SW 6.9 mph - N/A   Overcast
4:55 AM 6.8 °F -7.8 °F -0.4 °F 72% 30.18 in 10.0 mi SW 10.4 mph - N/A   Overcast
5:15 AM 8.6 °F -4.7 °F -0.4 °F 67% 30.18 in 10.0 mi SW 9.2 mph - N/A   Overcast
5:35 AM 8.6 °F -4.7 °F -2.2 °F 62% 30.19 in 10.0 mi SW 9.2 mph - N/A   Mostly Cloudy
5:55 AM 8.6 °F -4.7 °F -0.4 °F 67% 30.18 in 10.0 mi SW 9.2 mph - N/A   Partly Cloudy
6:15 AM 8.6 °F -3.7 °F -0.4 °F 67% 30.18 in 10.0 mi SSW 8.1 mph - N/A   Clear
6:35 AM 8.6 °F -3.7 °F -0.4 °F 67% 30.19 in 10.0 mi SW 8.1 mph - N/A   Mostly Cloudy
6:55 AM 8.6 °F -3.7 °F -2.2 °F 62% 30.18 in 10.0 mi SSW 8.1 mph - N/A   Overcast
7:15 AM 10.4 °F -1.5 °F -0.4 °F 62% 30.19 in 10.0 mi SW 8.1 mph - N/A   Overcast
7:35 AM 10.4 °F -2.4 °F -2.2 °F 57% 30.18 in 10.0 mi SSW 9.2 mph - N/A   Overcast
8:55 AM 12.2 °F 0.7 °F -0.4 °F 57% 30.15 in 10.0 mi SSW 8.1 mph - N/A   Overcast
9:15 AM 12.2 °F 1.7 °F -0.4 °F 57% 30.15 in 10.0 mi South 6.9 mph - N/A   Overcast
9:35 AM 12.2 °F 0.7 °F 1.4 °F 62% 30.15 in 10.0 mi SSW 8.1 mph - N/A   Overcast
9:55 AM 12.2 °F 2.9 °F 1.4 °F 62% 30.14 in 10.0 mi SSW 5.8 mph 16.1 mph N/A   Overcast
10:15 AM 14.0 °F 2.9 °F 1.4 °F 57% 30.14 in 10.0 mi SSW 8.1 mph - N/A   Overcast
10:35 AM 14.0 °F 0.5 °F 1.4 °F 57% 30.14 in 10.0 mi SSW 11.5 mph 16.1 mph N/A   Overcast
10:55 AM 15.8 °F 3.4 °F 1.4 °F 53% 30.13 in 10.0 mi SSW 10.4 mph 17.3 mph N/A   Overcast
11:15 AM 15.8 °F 2.7 °F 3.2 °F 58% 30.12 in 10.0 mi SSW 11.5 mph 16.1 mph N/A   Overcast
11:35 AM 17.6 °F 5.0 °F 5.0 °F 58% 30.11 in 10.0 mi SSW 11.5 mph 18.4 mph N/A   Overcast
11:55 AM 17.6 °F 5.0 °F 6.8 °F 63% 30.10 in 10.0 mi SSW 11.5 mph 17.3 mph N/A   Overcast
12:15 PM 17.6 °F 7.3 °F 6.8 °F 63% 30.09 in 10.0 mi South 8.1 mph 17.3 mph N/A   Overcast
12:35 PM 19.4 °F 9.5 °F 6.8 °F 58% 30.07 in 10.0 mi South 8.1 mph - N/A   Overcast
12:55 PM 19.4 °F 7.9 °F 6.8 °F 58% 30.05 in 10.0 mi SSW 10.4 mph 21.9 mph N/A   Overcast
1:15 PM 19.4 °F 7.2 °F 8.6 °F 63% 30.04 in 10.0 mi SW 11.5 mph 18.4 mph N/A   Overcast
1:35 PM 21.2 °F 8.9 °F 8.6 °F 58% 30.03 in 10.0 mi SSW 12.7 mph 18.4 mph N/A   Overcast
1:55 PM 21.2 °F 8.3 °F 8.6 °F 58% 30.02 in 10.0 mi SSW 13.8 mph 20.7 mph N/A   Overcast
2:15 PM 23.0 °F 11.1 °F 10.4 °F 59% 30.01 in 10.0 mi SSW 12.7 mph 21.9 mph N/A   Mostly Cloudy
2:35 PM 24.8 °F 16.9 °F 8.6 °F 50% 30.01 in 10.0 mi SSW 6.9 mph 19.6 mph N/A   Mostly Cloudy
2:55 PM 24.8 °F 14.0 °F 8.6 °F 50% 30.02 in 10.0 mi SW 11.5 mph 17.3 mph N/A   Mostly Cloudy
3:15 PM 24.8 °F 12.9 °F 10.4 °F 54% 30.03 in 10.0 mi SW 13.8 mph - N/A   Mostly Cloudy
4:35 PM 21.2 °F 9.5 °F 10.4 °F 63% 30.07 in 10.0 mi SW 11.5 mph - N/A   Partly Cloudy
4:55 PM 21.2 °F 10.1 °F 8.6 °F 58% 30.07 in 10.0 mi SW 10.4 mph - N/A   Partly Cloudy
5:15 PM 21.2 °F 10.1 °F 8.6 °F 58% 30.07 in 10.0 mi SW 10.4 mph 16.1 mph N/A   Scattered Clouds
5:35 PM 21.2 °F 8.9 °F 8.6 °F 58% 30.07 in 10.0 mi SW 12.7 mph - N/A   Partly Cloudy
5:55 PM 21.2 °F 9.5 °F 8.6 °F 58% 30.08 in 10.0 mi SW 11.5 mph - N/A   Partly Cloudy
6:15 PM 19.4 °F 6.6 °F 8.6 °F 63% 30.08 in 10.0 mi SW 12.7 mph 19.6 mph N/A   Partly Cloudy
6:35 PM 19.4 °F 9.5 °F 10.4 °F 68% 30.08 in 10.0 mi SW 8.1 mph - N/A   Partly Cloudy
6:55 PM 19.4 °F 7.2 °F 10.4 °F 68% 30.08 in 10.0 mi SSW 11.5 mph - N/A   Partly Cloudy
7:55 PM 19.4 °F 8.6 °F 12.2 °F 74% 30.08 in 10.0 mi SSW 9.2 mph 16.1 mph N/A   Partly Cloudy
8:15 PM 19.4 °F 8.6 °F 12.2 °F 74% 30.08 in 10.0 mi SW 9.2 mph - N/A   Partly Cloudy
8:35 PM 19.4 °F 7.9 °F 12.2 °F 74% 30.07 in 10.0 mi SSW 10.4 mph - N/A   Partly Cloudy
8:55 PM 19.4 °F 9.5 °F 12.2 °F 74% 30.07 in 10.0 mi SSW 8.1 mph - N/A   Partly Cloudy
9:15 PM 19.4 °F 8.6 °F 14.0 °F 80% 30.07 in 10.0 mi SSW 9.2 mph - N/A   Partly Cloudy
9:35 PM 19.4 °F 9.5 °F 12.2 °F 74% 30.06 in 10.0 mi SSW 8.1 mph - N/A   Partly Cloudy
9:55 PM 19.4 °F 8.6 °F 12.2 °F 74% 30.06 in 10.0 mi SSW 9.2 mph - N/A   Partly Cloudy
10:15 PM 19.4 °F 8.6 °F 14.0 °F 80% 30.05 in 10.0 mi SSW 9.2 mph - N/A   Partly Cloudy
10:35 PM 19.4 °F 10.4 °F 12.2 °F 74% 30.05 in 10.0 mi SSW 6.9 mph - N/A   Clear
10:55 PM 19.4 °F 8.6 °F 15.8 °F 86% 30.05 in 10.0 mi SSW 9.2 mph - N/A   Clear
11:15 PM 19.4 °F 9.5 °F 15.8 °F 86% 30.05 in 10.0 mi South 8.1 mph - N/A   Partly Cloudy
11:35 PM 19.4 °F 8.6 °F 15.8 °F 86% 30.05 in 10.0 mi South 9.2 mph - N/A   Partly Cloudy
11:55 PM 19.4 °F 11.5 °F 15.8 °F 86% 30.05 in 10.0 mi South 5.8 mph - N/A   Partly Cloudy